Location: Krakow
(50.0614°N, 19.9383°E)
Time: 23:41:14
(UTC+01:00)

ISS - Visible Passes

Search period start: 21 January 2018 00:00
Search period end: 31 January 2018 00:00
Orbit: 402 x 407 km, 51.6° (Epoch: 22 January)

Date Brightness Start Highest point End Pass type
(mag) Time Alt. Az. Time Alt. Az. Time Alt. Az.
25 Jan -1.2 18:13:16 10° SSE 18:13:37 11° SSE 18:13:37 11° SSE visible
26 Jan -1.4 18:55:25 10° SW 18:56:24 17° SSW 18:56:24 17° SSW visible
27 Jan -2.4 18:03:33 10° SSW 18:06:14 23° SE 18:06:25 23° SE visible
28 Jan -1.7 17:12:07 10° S 17:14:04 15° SE 17:16:01 10° ESE visible
28 Jan -2.6 18:46:50 10° WSW 18:49:02 38° SW 18:49:02 38° SW visible
29 Jan -3.2 17:54:38 10° SW 17:57:45 42° SSE 17:58:54 29° ESE visible
29 Jan -0.7 19:30:52 10° W 19:31:34 15° W 19:31:34 15° W visible
30 Jan -2.4 17:02:40 10° SSW 17:05:29 27° SE 17:08:18 10° E visible
30 Jan -3.6 18:38:26 10° WSW 18:41:23 70° W 18:41:23 70° W visible
